Location: Churchill Northern Studies Centre
(58.7378°N, 93.8201°W)
Time: 19:28:24
(UTC-05:00)

Vanguard 2 - All Passes

Search period start: 16 July 2018 00:00
Search period end: 26 July 2018 00:00
Orbit: 553 x 2939 km, 32.9° (Epoch: 16 July)

Date Brightness Start Highest point End Pass type
(mag) Time Alt. Az. Time Alt. Az. Time Alt. Az.
16 Jul - 01:33:53 10° WSW 01:42:41 17° SSW 01:50:17 10° S visible
16 Jul - 19:25:46 10° S 19:34:46 17° SSE 19:44:02 10° ESE daylight
16 Jul - 21:30:38 10° SW 21:43:11 25° S 21:55:12 10° SE daylight
16 Jul - 23:39:37 10° WSW 23:51:57 24° SSW 00:02:47 10° SSE visible
17 Jul - 01:52:42 10° WSW 01:59:43 14° SW 02:05:59 10° SSW visible
17 Jul - 19:41:36 10° S 19:51:53 20° SSE 20:02:35 10° ESE daylight
17 Jul - 21:47:41 10° SW 22:00:30 26° S 22:12:47 10° SE daylight
17 Jul - 23:57:22 10° WSW 00:09:11 23° SSW 00:19:41 10° SSE visible
18 Jul - 02:12:51 10° WSW 02:16:39 11° SW 02:20:14 10° SSW visible
18 Jul - 17:58:26 10° SSE 18:01:25 11° SE 18:04:29 10° SE daylight
18 Jul - 19:57:56 10° SSW 20:09:03 22° SSE 20:20:43 10° ESE daylight
18 Jul - 22:04:58 10° SW 22:17:49 26° S 22:30:11 10° SE daylight
19 Jul - 00:15:21 10° WSW 00:26:22 20° SSW 00:36:16 10° SSE visible
19 Jul - 18:11:42 10° SSE 18:18:20 14° SE 18:25:28 10° ESE daylight
19 Jul - 20:14:38 10° SSW 20:26:17 24° SSE 20:38:36 10° ESE daylight
19 Jul - 22:22:25 10° SW 22:35:07 26° S 22:47:23 10° SE daylight
20 Jul - 00:33:40 10° WSW 00:43:28 18° SSW 00:52:26 10° S visible
20 Jul - 18:27:02 10° S 18:35:20 17° SSE 18:44:32 10° ESE daylight
20 Jul - 20:31:36 10° SW 20:43:33 26° S 20:56:16 10° SE daylight
20 Jul - 22:40:03 10° WSW 22:52:24 25° SSW 23:04:23 10° SSE visible
21 Jul - 00:52:32 10° WSW 01:00:29 15° SW 01:07:58 10° S visible
21 Jul - 18:43:06 10° S 18:52:26 20° SSE 19:02:57 10° ESE daylight
21 Jul - 20:48:48 10° SW 21:00:51 26° S 21:13:44 10° SE daylight
21 Jul - 22:57:53 10° WSW 23:09:38 23° SSW 23:21:08 10° SSE visible
22 Jul - 01:12:40 10° WSW 01:17:27 12° SW 01:22:04 10° SSW visible
22 Jul - 18:59:38 10° SSW 19:09:35 22° SSE 19:21:00 10° ESE daylight
22 Jul - 21:06:11 10° SW 21:18:09 26° S 21:31:02 10° SE daylight
22 Jul - 23:15:58 10° WSW 23:26:50 20° SSW 23:37:32 10° SSE visible
23 Jul - 17:14:02 10° SSE 17:19:14 13° SE 17:25:01 10° ESE daylight
23 Jul - 19:16:29 10° SSW 19:26:48 23° SSE 19:38:48 10° ESE daylight
23 Jul - 21:23:43 10° SW 21:35:28 25° S 21:48:08 10° SE daylight
23 Jul - 23:34:26 10° WSW 23:43:58 18° SSW 23:53:26 10° S visible
24 Jul - 17:29:27 10° S 17:36:14 16° SE 17:44:06 10° ESE daylight
24 Jul - 19:33:34 10° SW 19:44:05 24° S 19:56:23 10° SE daylight
24 Jul - 21:41:28 10° WSW 21:52:47 24° SSW 22:04:58 10° SSE daylight
24 Jul - 23:53:32 10° WSW 00:01:03 14° SW 00:08:34 10° S visible
25 Jul - 17:45:40 10° S 17:53:20 18° SSE 18:02:30 10° ESE daylight
25 Jul - 19:50:53 10° SW 20:01:23 25° S 20:13:46 10° SE daylight
25 Jul - 21:59:25 10° WSW 22:10:04 22° SSW 22:21:31 10° SSE daylight
